Location: *
(40.9167°N, 9.5000°E)
Time: 02:39:46
(UTC+00:00)

Cosmos 2366 rocket - Pass Details

Date: 09 April 2020
Orbit: 956 x 996 km, 82.9° (Epoch: 31 May)

Event Time Altitude Azimuth Distance (km) Brightness Sun altitude
Rises 19:37:48 0° 358° (N) 3,644 7.4 -18.9°
Reaches altitude 10° 19:40:25 10° 4° (N) 2,695 6.6 -19.3°
Maximum altitude 19:46:20 48° 78° (ENE) 1,240 4.2 -20.3°
Enters shadow 19:48:09 37° 122° (ESE) 1,442 4.3 -20.5°
